Find Starlink 34917

NORAD ID: 65190 Int'l Des: 2025-175 Owner: SPXS Country: US Constellation: starlink operational
LEOCIRCULARRETROGRADESSO

リアルタイム位置

3D地球を読み込み中...

Starlink 34917について

説明を読み込み中...

次回通過

Passes for default location (London). Set your location on the main map for personalized predictions.

高度履歴

Loading altitude history...

軌道要素

1 65190U 25175S 26106.91668981 .00020891 00000-0 14474-2 0 9996
2 65190 97.6045 340.3617 0002556 88.3010 292.5633 15.05658825 5792
Epoch: Apr 16, 2026 • Age: 5 hours

現在のステータス

高度 557.5 km
速度 7.59 km/s
衛星直下点 56.33°N, 81.77°W
打ち上げ日 Aug 14, 2025
運用期間 0.6 years
タイプ internet

技術仕様

分類 Payload
質量 575.00 kg
乾燥質量 530.00 kg
総質量 575.00 kg
長さ 0.30 m
直径 4.10 m
スパン 29.00 m
形状 Box + pan
製造者 SPXS
バスタイプ Starlink V2MO
フェーズステータス In Orbit
所有者/国 SPXS/US

Most Searched